GW3385 Weather Reports


time (UTC)temp
F
wind
direction
speed
knots
gust
knots
rain 1hr
in
rain 24hr
in
rain mn
in
humidity
%
barometer
mb
20260507021057 61 273 5.2 9.6 0.00 0.00 0.00 78 1015.0
20260507020556 61 244 4.3 10.4 0.00 0.00 0.00 78 1014.9
20260507020057 61 260 5.2 10.4 0.00 0.00 0.00 78 1014.9
20260507015554 62 261 7.0 10.4 0.00 0.00 0.00 76 1014.8
20260507015055 62 272 5.2 9.6 0.00 0.00 0.00 76 1014.8
20260507014604 62 279 5.2 11.3 0.00 0.00 0.00 76 1014.9
20260507014056 62 276 2.6 11.3 0.00 0.00 0.00 76 1014.9
20260507013556 62 276 6.1 11.3 0.00 0.00 0.00 75 1015.0
20260507013102 62 284 6.1 9.6 0.00 0.00 0.00 76 1014.9
20260507012555 62 259 2.6 13.0 0.00 0.00 0.00 78 1014.8
20260507012100 62 238 5.2 13.0 0.00 0.00 0.00 77 1014.8
20260507011557 62 272 7.8 13.0 0.00 0.00 0.00 75 1014.8
20260507011059 63 243 4.3 12.2 0.00 0.00 0.00 77 1014.8
20260507010555 63 243 3.5 10.4 0.00 0.00 0.00 77 1014.8
20260507005555 62 236 7.8 12.2 0.00 0.00 0.00 76 1014.8
20260507005055 63 278 7.8 13.9 0.00 0.00 0.00 75 1014.7
20260507004557 63 267 7.0 13.9 0.00 0.00 0.00 74 1014.8
20260507004056 63 267 7.8 13.0 0.00 0.00 0.00 72 1014.7
20260507003555 64 275 7.0 13.0 0.00 0.00 0.00 72 1014.7
20260507003057 65 305 8.7 13.0 0.00 0.00 0.00 70 1014.7
20260507002556 66 265 2.6 10.4 0.00 0.00 0.00 72 1014.6
20260507002055 65 227 3.5 10.4 0.00 0.00 0.00 71 1014.7
20260507001602 65 186 4.3 13.0 0.00 0.00 0.00 70 1014.7
20260507001055 65 222 3.5 13.0 0.00 0.00 0.00 69 1014.7
20260507000555 65 267 6.1 13.0 0.00 0.00 0.00 67 1014.7
20260507000056 66 281 6.1 13.0 0.00 0.00 0.00 66 1014.7
20260506235558 66 213 3.5 9.6 0.00 0.00 0.00 69 1014.6
20260506235055 66 227 5.2 9.6 0.00 0.00 0.00 68 1014.6
20260506234554 66 208 3.5 10.4 0.00 0.00 0.00 67 1014.6
20260506234055 66 168 5.2 11.3 0.00 0.00 0.00 67 1014.6
20260506233555 66 267 3.5 11.3 0.00 0.00 0.00 68 1014.6
20260506233114 66 240 7.0 12.2 0.00 0.00 0.00 68 1014.7
20260506232554 66 282 5.2 12.2 0.00 0.00 0.00 68 1014.7
20260506232054 66 201 6.1 12.2 0.00 0.00 0.00 68 1014.7
20260506231555 66 265 5.2 12.2 0.00 0.00 0.00 67 1014.8
20260506231056 66 284 5.2 12.2 0.00 0.00 0.00 66 1014.7
20260506230555 66 224 5.2 10.4 0.00 0.00 0.00 65 1014.8
20260506230052 66 229 5.2 13.9 0.00 0.00 0.00 67 1014.8
20260506225555 66 149 7.0 13.9 0.00 0.00 0.00 66 1014.8
20260506225054 66 213 6.1 13.9 0.00 0.00 0.00 66 1014.7
20260506224554 66 175 6.1 13.9 0.00 0.00 0.00 65 1014.9
20260506224058 66 192 6.1 12.2 0.00 0.00 0.00 65 1015.0
20260506223559 66 296 7.0 12.2 0.00 0.00 0.00 64 1015.1
20260506223055 66 280 7.0 12.2 0.00 0.00 0.00 65 1015.1
20260506222555 66 275 3.5 13.0 0.00 0.00 0.00 65 1015.2
20260506222055 66 268 7.0 13.0 0.00 0.00 0.00 65 1015.2
20260506221558 67 217 5.2 13.0 0.00 0.00 0.00 64 1015.3
20260506221054 67 166 3.5 13.0 0.00 0.00 0.00 64 1015.3
20260506220555 66 275 6.1 13.0 0.00 0.00 0.00 64 1015.5
20260506220056 66 314 6.1 13.0 0.00 0.00 0.00 63 1015.5
20260506215554 66 275 7.0 11.3 0.00 0.00 0.00 63 1015.5
20260506215054 66 261 7.0 12.2 0.00 0.00 0.00 64 1015.6
20260506214555 66 265 7.0 12.2 0.00 0.00 0.00 64 1015.6
20260506214055 66 223 6.1 11.3 0.00 0.00 0.00 61 1015.7
20260506213555 66 262 6.1 12.2 0.00 0.00 0.00 62 1015.7
20260506213111 66 221 7.0 12.2 0.00 0.00 0.00 61 1015.8
20260506212555 67 277 7.0 11.3 0.00 0.00 0.00 61 1015.8
20260506212056 67 282 3.5 13.0 0.00 0.00 0.00 60 1015.9
20260506211558 67 177 6.1 13.0 0.00 0.00 0.00 61 1016.0
20260506211055 66 252 5.2 11.3 0.00 0.00 0.00 64 1015.9
20260506210555 67 295 5.2 11.3 0.00 0.00 0.00 64 1016.1
20260506210057 66 299 6.1 11.3 0.00 0.00 0.00 63 1016.0
20260506205555 67 198 4.3 11.3 0.00 0.00 0.00 63 1016.1
20260506205055 67 290 4.3 11.3 0.00 0.00 0.00 63 1016.1
20260506204559 67 202 6.1 11.3 0.00 0.00 0.00 64 1016.2
20260506204054 66 26 4.3 9.6 0.00 0.00 0.00 65 1016.1
20260506203557 66 181 6.1 9.6 0.00 0.00 0.00 66 1016.1
20260506203055 66 189 5.2 11.3 0.00 0.00 0.00 65 1016.2
20260506202557 66 250 5.2 11.3 0.00 0.00 0.00 66 1016.1
20260506202055 66 246 6.1 11.3 0.00 0.00 0.00 64 1016.2
20260506201556 66 229 5.2 8.7 0.00 0.00 0.00 64 1016.3
20260506201054 66 203 3.5 8.7 0.00 0.00 0.00 65 1016.3
20260506200554 66 255 5.2 10.4 0.00 0.00 0.00 65 1016.4
20260506200054 66 297 4.3 10.4 0.00 0.00 0.00 65 1016.5
20260506195554 66 245 4.3 10.4 0.00 0.00 0.00 64 1016.6
20260506195056 66 215 5.2 10.4 0.00 0.00 0.00 64 1016.6
20260506194623 66 205 3.5 12.2 0.00 0.00 0.00 64 1016.5
20260506194058 66 198 3.5 12.2 0.00 0.00 0.00 66 1016.6
20260506193555 66 189 6.1 12.2 0.00 0.00 0.00 66 1016.5
20260506193104 66 263 4.3 9.6 0.00 0.00 0.00 66 1016.7
20260506192555 66 191 2.6 8.7 0.00 0.00 0.00 66 1016.8
20260506192054 66 236 2.6 10.4 0.00 0.00 0.00 66 1016.9
20260506191553 66 280 4.3 10.4 0.00 0.00 0.00 67 1017.0
20260506191056 65 250 3.5 11.3 0.00 0.00 0.00 66 1016.9
20260506190555 65 184 5.2 11.3 0.00 0.00 0.00 67 1017.0
20260506190057 65 263 4.3 9.6 0.00 0.00 0.00 67 1017.1
20260506185555 65 277 3.5 13.0 0.00 0.00 0.00 68 1017.1
20260506185056 65 208 5.2 13.0 0.00 0.00 0.00 69 1017.1
20260506184554 65 271 6.1 13.0 0.00 0.00 0.00 69 1017.1
20260506184055 65 281 6.1 9.6 0.00 0.00 0.00 68 1017.1
20260506183555 65 273 4.3 9.6 0.00 0.00 0.00 68 1017.0
20260506183055 65 286 4.3 8.7 0.00 0.00 0.00 69 1017.1
20260506182555 66 178 4.3 9.6 0.00 0.00 0.00 68 1017.2
20260506182054 66 140 3.5 9.6 0.00 0.00 0.00 69 1017.1
20260506181555 66 302 2.6 7.8 0.00 0.00 0.00 69 1017.2
20260506181052 65 225 3.5 8.7 0.00 0.00 0.00 69 1017.2
20260506180553 65 303 4.3 9.6 0.00 0.00 0.00 71 1017.2
20260506180104 65 188 3.5 9.6 0.00 0.00 0.00 70 1017.1
20260506175552 66 199 3.5 9.6 0.00 0.00 0.00 69 1017.2
20260506175056 66 171 4.3 7.8 0.00 0.00 0.00 68 1017.3
20260506174557 66 130 1.7 6.1 0.00 0.00 0.00 66 1017.4
20260506174052 66 168 2.6 7.0 0.00 0.00 0.00 67 1017.4
20260506173553 65 102 1.7 7.0 0.00 0.00 0.00 68 1017.3
20260506173058 65 295 3.5 8.7 0.00 0.00 0.00 68 1017.2
20260506172551 65 265 3.5 8.7 0.00 0.00 0.00 67 1017.3
20260506172055 66 186 1.7 7.8 0.00 0.00 0.00 67 1017.3
20260506171601 66 309 0.9 5.2 0.00 0.00 0.00 67 1017.3
20260506171056 65 257 0.9 2.6 0.00 0.00 0.00 67 1017.3
20260506170552 64 87 0.9 3.5 0.00 0.00 0.00 68 1017.1
20260506170106 64 265 0.9 5.2 0.00 0.00 0.00 68 1017.1
20260506165552 64 0 1.7 5.2 0.00 0.00 0.00 68 1017.2
20260506165053 64 218 1.7 5.2 0.00 0.00 0.00 68 1017.2
20260506164607 64 0 0.9 5.2 0.00 0.00 0.00 69 1017.1
20260506164053 63 274 2.6 5.2 0.00 0.00 0.00 70 1017.1
20260506163552 63 226 1.7 5.2 0.00 0.00 0.00 70 1017.2
20260506163119 63 0 0.9 3.5 0.00 0.00 0.00 72 1017.1
20260506162553 63 59 0.9 4.3 0.00 0.00 0.00 72 1017.2
20260506162054 63 198 1.7 5.2 0.00 0.00 0.00 73 1017.4
20260506161616 63 175 0.9 5.2 0.00 0.00 0.00 72 1017.3
20260506161052 63 80 1.7 5.2 0.00 0.00 0.00 73 1017.3
20260506160555 63 92 1.7 5.2 0.00 0.00 0.00 73 1017.3
20260506160057 63 109 0.9 3.5 0.00 0.00 0.00 74 1017.3
20260506155556 62 89 0.9 4.3 0.00 0.00 0.00 75 1017.4
20260506155054 62 62 0.9 4.3 0.00 0.00 0.00 76 1017.4
20260506154619 61 55 0.9 5.2 0.00 0.00 0.00 77 1017.4
20260506154052 61 5 0.9 5.2 0.00 0.00 0.00 77 1017.3
20260506153553 61 85 0.9 5.2 0.00 0.00 0.00 78 1017.4
20260506153107 60 118 1.7 5.2 0.00 0.00 0.00 79 1017.4
20260506152553 60 83 0.0 6.1 0.00 0.00 0.00 81 1017.3
20260506152058 60 32 0.9 6.1 0.00 0.00 0.00 81 1017.3
20260506151558 59 0 2.6 6.1 0.00 0.00 0.00 81 1017.3
20260506151052 59 93 2.6 6.1 0.00 0.00 0.00 81 1017.2
20260506150555 59 57 0.9 4.3 0.00 0.00 0.00 82 1017.3
20260506150052 59 0 0.9 7.0 0.00 0.00 0.00 82 1017.3
20260506145554 59 31 1.7 7.0 0.00 0.00 0.00 82 1017.3
20260506145054 59 75 1.7 5.2 0.00 0.00 0.00 82 1017.3
20260506144553 59 59 1.7 4.3 0.00 0.00 0.00 82 1017.4
20260506144054 58 26 0.9 4.3 0.00 0.00 0.00 82 1017.3
20260506143555 58 352 0.9 4.3 0.00 0.00 0.00 83 1017.4
20260506143104 57 35 0.9 4.3 0.00 0.00 0.00 83 1017.4
20260506142556 57 21 0.0 3.5 0.00 0.00 0.00 84 1017.2
20260506142052 57 43 0.9 2.6 0.00 0.00 0.00 85 1017.2
20260506141554 56 0 0.0 2.6 0.00 0.00 0.00 85 1017.1
20260506141055 56 20 0.0 2.6 0.00 0.00 0.00 85 1017.1
20260506140555 55 0 0.0 1.7 0.00 0.00 0.00 85 1017.0
20260506140057 55 345 0.0 1.7 0.00 0.00 0.00 85 1017.0
20260506135552 55 0 0.0 0.9 0.00 0.00 0.00 86 1016.9
20260506135052 54 0 0.0 1.7 0.00 0.00 0.00 87 1016.9
20260506134555 54 0 0.0 1.7 0.00 0.00 0.00 87 1016.7
20260506134052 54 0 0.0 1.7 0.00 0.00 0.00 87 1016.8
20260506133552 53 0 0.0 0.9 0.00 0.00 0.00 88 1016.8
20260506133057 53 0 0.0 1.7 0.00 0.00 0.00 88 1016.7
20260506132551 53 0 0.0 1.7 0.00 0.00 0.00 88 1016.7
20260506132057 53 0 0.0 0.9 0.00 0.00 0.00 87 1016.7
20260506131557 53 0 0.0 1.7 0.00 0.00 0.00 87 1016.6
20260506131052 53 0 0.0 2.6 0.00 0.00 0.00 87 1016.6
20260506130553 53 0 0.0 2.6 0.00 0.00 0.00 88 1016.5
20260506130054 53 342 0.0 2.6 0.00 0.00 0.00 87 1016.5
20260506125552 53 331 0.0 0.9 0.00 0.00 0.00 87 1016.3
20260506125057 53 0 0.0 0.9 0.00 0.00 0.00 87 1016.3
20260506124553 53 0 0.0 0.0 0.00 0.00 0.00 87 1016.2
20260506124052 53 0 0.0 0.0 0.00 0.00 0.00 87 1016.2
20260506123553 53 0 0.0 0.0 0.00 0.00 0.00 87 1016.0
20260506123055 53 0 0.0 0.0 0.00 0.00 0.00 87 1016.1
20260506122553 53 0 0.0 0.0 0.00 0.00 0.00 87 1016.1
20260506122052 53 0 0.0 0.9 0.00 0.00 0.00 87 1016.1
20260506121553 53 0 0.0 1.7 0.00 0.00 0.00 87 1016.0
20260506121055 53 0 0.0 1.7 0.00 0.00 0.00 87 1016.0
20260506120555 53 332 0.0 1.7 0.00 0.00 0.00 87 1016.0
20260506120058 53 0 0.0 1.7 0.00 0.00 0.00 87 1016.0
20260506115552 53 0 0.0 1.7 0.00 0.00 0.00 87 1015.9
20260506115052 53 321 0.0 0.0 0.00 0.00 0.00 87 1015.9
20260506114605 53 0 0.0 0.9 0.00 0.00 0.00 87 1015.9
20260506114058 53 0 0.0 1.7 0.00 0.00 0.00 87 1016.0
20260506113552 53 0 0.0 1.7 0.00 0.00 0.00 87 1015.9
20260506113055 54 0 0.0 1.7 0.00 0.00 0.00 87 1015.9
20260506112556 54 0 0.0 0.9 0.00 0.00 0.00 87 1015.9
20260506112052 54 0 0.0 1.7 0.00 0.00 0.00 87 1015.8
20260506111555 54 0 0.0 2.6 0.00 0.00 0.00 87 1015.9
20260506111055 54 0 0.0 2.6 0.00 0.00 0.00 87 1015.8
20260506110555 54 0 0.9 2.6 0.00 0.00 0.00 87 1015.8
20260506110104 54 325 0.0 0.9 0.00 0.00 0.00 87 1015.9
20260506105558 54 0 0.0 1.7 0.00 0.00 0.00 87 1015.8
20260506105054 54 0 0.0 1.7 0.00 0.00 0.00 87 1015.9
20260506104553 54 0 0.0 1.7 0.00 0.00 0.00 87 1016.0
20260506104054 54 0 0.0 0.0 0.00 0.00 0.00 87 1016.0
20260506103554 54 0 0.0 0.0 0.00 0.00 0.00 87 1015.9
20260506103059 54 0 0.0 0.0 0.00 0.00 0.00 87 1015.9
20260506102555 54 0 0.0 0.0 0.00 0.00 0.00 87 1016.0
20260506102055 54 0 0.0 0.0 0.00 0.00 0.00 87 1015.9
20260506101603 54 0 0.0 2.6 0.00 0.00 0.00 87 1016.0
20260506101055 54 0 0.9 2.6 0.00 0.00 0.00 87 1015.9
20260506100555 54 0 0.0 1.7 0.00 0.00 0.00 87 1015.9
20260506100055 54 0 0.0 1.7 0.00 0.00 0.00 87 1015.9
20260506095559 54 0 0.0 1.7 0.00 0.00 0.00 87 1016.0
20260506095055 54 0 0.0 3.5 0.00 0.00 0.00 87 1016.1
20260506094622 54 0 0.9 3.5 0.00 0.00 0.00 87 1016.0
20260506094054 54 351 0.0 2.6 0.00 0.00 0.00 87 1016.0
20260506093556 54 0 0.0 2.6 0.00 0.00 0.00 87 1016.0
20260506093058 54 0 0.0 2.6 0.00 0.00 0.00 87 1016.0
20260506092555 54 321 0.0 1.7 0.00 0.00 0.00 87 1016.0
20260506092055 54 0 0.0 1.7 0.00 0.00 0.00 87 1015.9
20260506091556 54 0 0.0 1.7 0.00 0.00 0.00 87 1016.0
20260506091054 54 0 0.0 0.9 0.00 0.00 0.00 87 1016.1
20260506090554 54 0 0.0 0.9 0.00 0.00 0.00 87 1016.1
20260506085555 54 0 0.0 2.6 0.00 0.00 0.00 87 1016.3
20260506085055 54 0 0.9 3.5 0.00 0.00 0.00 87 1016.2
20260506084554 54 349 0.9 3.5 0.00 0.00 0.00 87 1016.3
20260506084058 54 0 1.7 3.5 0.00 0.00 0.00 87 1016.3
20260506083555 54 338 1.7 3.5 0.00 0.00 0.00 86 1016.4
20260506083103 54 343 1.7 2.6 0.00 0.00 0.00 86 1016.2
20260506082558 54 331 0.0 0.9 0.00 0.00 0.00 86 1016.3
20260506082055 54 0 0.0 0.9 0.00 0.00 0.00 86 1016.3
20260506081555 54 0 0.0 1.7 0.00 0.00 0.00 86 1016.4
20260506081054 54 0 0.0 2.6 0.00 0.00 0.00 86 1016.4
20260506080556 54 0 0.0 3.5 0.00 0.00 0.00 86 1016.5
20260506073058 54 323 1.7 3.5 0.00 0.00 0.00 85 1016.5
20260506072555 54 339 0.0 1.7 0.00 0.00 0.00 85 1016.5
20260506072052 54 0 0.0 0.0 0.00 0.00 0.00 85 1016.5
20260506071557 54 0 0.0 0.0 0.00 0.00 0.00 85 1016.5
20260506071056 54 0 0.0 0.0 0.00 0.00 0.00 85 1016.5
20260506070552 54 0 0.0 0.0 0.00 0.00 0.00 85 1016.4
20260506070104 54 0 0.0 0.0 0.00 0.00 0.00 84 1016.3
20260506062052 55 338 0.9 3.5 0.00 0.00 0.00 84 1015.9
20260506061600 55 345 1.7 3.5 0.00 0.00 0.00 84 1016.0
20260506061053 55 0 0.0 2.6 0.00 0.00 0.00 83 1016.0
20260506060553 55 352 0.9 2.6 0.00 0.00 0.00 83 1015.9
20260506060104 55 0 0.0 2.6 0.00 0.00 0.00 83 1015.9
20260506051052 56 0 0.0 1.7 0.00 0.00 0.00 80 1015.4
20260506050552 56 346 0.0 1.7 0.00 0.00 0.00 80 1015.5
20260506045052 57 352 0.0 1.7 0.00 0.00 0.00 79 1015.3
20260506044555 57 0 0.0 1.7 0.00 0.00 0.00 79 1015.2
20260506044052 57 352 0.0 1.7 0.00 0.00 0.00 79 1015.1
20260506043552 58 0 0.0 1.7 0.00 0.00 0.00 78 1015.0
20260506043053 58 0 0.0 1.7 0.00 0.00 0.00 78 1015.0
20260506042552 58 339 0.0 1.7 0.00 0.00 0.00 77 1014.9
20260506042055 58 0 0.0 1.7 0.00 0.00 0.00 76 1014.9
20260506041556 58 0 0.0 1.7 0.00 0.00 0.00 76 1014.8
20260506041052 58 0 0.0 3.5 0.00 0.00 0.00 76 1014.8
20260506040552 58 0 0.0 3.5 0.00 0.00 0.00 76 1014.6
20260506040101 58 0 0.9 3.5 0.00 0.00 0.00 77 1014.6
20260506035551 58 273 0.9 3.5 0.00 0.00 0.00 76 1014.6
20260506035053 58 0 0.9 3.5 0.00 0.00 0.00 76 1014.6
20260506034606 59 266 0.9 3.5 0.00 0.00 0.00 76 1014.5
20260506034052 59 279 0.0 3.5 0.00 0.00 0.00 76 1014.5
20260506033552 59 279 0.0 1.7 0.00 0.00 0.00 76 1014.4
20260506033054 59 285 0.0 5.2 0.00 0.00 0.00 76 1014.4
20260506032552 59 287 0.9 6.1 0.00 0.00 0.00 76 1014.4
20260506032058 59 275 0.9 6.1 0.00 0.00 0.00 76 1014.2
20260506031600 59 274 3.5 7.0 0.00 0.00 0.00 76 1014.2
20260506031057 59 0 1.7 7.8 0.00 0.00 0.00 75 1013.9
20260506030551 59 273 4.3 7.8 0.00 0.00 0.00 75 1013.9
20260506030056 59 302 1.7 7.8 0.00 0.00 0.00 76 1014.0
20260506025552 59 307 2.6 7.8 0.00 0.00 0.00 76 1013.9
20260506025052 59 293 2.6 8.7 0.00 0.00 0.00 75 1013.9
20260506024554 59 276 2.6 8.7 0.00 0.00 0.00 75 1013.7
20260506024053 59 213 4.3 9.6 0.00 0.00 0.00 75 1013.8
20260506023553 59 196 1.7 9.6 0.00 0.00 0.00 75 1013.7
20260506023056 59 264 4.3 8.7 0.00 0.00 0.00 74 1013.6
20260506022552 60 267 1.7 10.4 0.00 0.00 0.00 75 1013.5
20260506022052 60 294 3.5 10.4 0.00 0.00 0.00 75 1013.4
20260506021557 60 263 5.2 10.4 0.00 0.00 0.00 74 1013.3